Date String (YYYY-MM-DD hh:mm:ss) UTC,Instrument flags,Ambient pressure (hPa),Sample flow (lpm),Bypass flow (lpm),Sample temperature (°C),Ambient temperature (°C),ASC tube jacket temperature (°C),LED temperature (°C),Box temperature (°C),Sample RH (%),Span deviation,Mass concentration (μg/m³),Mass concentration (μg/m³),Mass concentration (μg/m³)
DateTimeUTC,F1_M11,P_M11,Q1_M11,Q2_M11,T1_M11,T2_M11,T3_M11,T4_M11,T5_M11,U1_M11,ZSPAN_M11,X0_M11,X2_M11,X1_M11
2022-08-15 04:00:00,,0829.7,5.00,0.00,30.9,27.0,00.0,38.5,31.5,34.4,0000.0,0007.94,0004.12,0003.47
2022-08-15 04:01:00,,0829.7,5.00,0.00,31.0,27.2,00.0,38.6,31.5,34.3,0000.0,0008.19,0004.15,0003.49
2022-08-15 04:02:00,,0829.8,4.99,0.00,31.0,27.3,00.0,38.6,31.5,33.7,0000.0,0008.12,0004.13,0003.48
2022-08-15 04:03:00,,0829.8,5.01,0.00,31.0,27.5,00.0,38.7,31.5,33.6,0000.0,0008.20,0004.08,0003.47
2022-08-15 04:04:00,,0829.9,4.99,0.00,31.0,27.7,00.0,38.8,31.5,34.8,0000.0,0008.78,0004.09,0003.49
2022-08-15 04:05:00,,0829.9,5.00,0.00,31.0,27.9,00.0,38.9,31.6,34.5,0000.0,0008.79,0004.10,0003.49
2022-08-15 04:06:00,,0829.8,5.01,0.00,31.0,28.0,00.0,38.9,31.6,33.7,0000.0,0008.72,0004.12,0003.49
2022-08-15 04:07:00,,0830.0,4.99,0.00,30.9,28.2,00.0,39.0,31.7,33.2,0000.0,0008.86,0004.16,0003.50
2022-08-15 04:08:00,,0829.9,5.00,0.00,30.9,28.3,00.0,39.0,31.7,33.3,0000.0,0008.88,0004.14,0003.50
2022-08-15 04:09:00,,0829.9,5.01,0.00,30.9,28.4,00.0,39.1,31.8,33.4,0000.0,0008.95,0004.16,0003.52
2022-08-15 04:10:00,,0829.8,4.99,0.00,30.9,28.5,00.0,39.1,31.8,33.2,0000.0,0008.82,0004.12,0003.54
2022-08-15 04:11:00,,0829.8,5.00,0.00,30.9,28.6,00.0,39.1,31.8,33.2,0000.0,0008.38,0004.09,0003.55
2022-08-15 04:12:00,,0829.9,5.00,0.00,30.9,28.7,00.0,39.2,31.9,33.3,0000.0,0008.03,0004.05,0003.55
2022-08-15 04:13:00,,0829.9,5.00,0.00,30.9,28.5,00.0,39.2,31.8,33.2,0000.0,0008.34,0004.10,0003.56
2022-08-15 04:14:00,,0829.9,5.01,0.00,30.8,27.7,00.0,39.1,31.5,33.3,0000.0,0008.35,0004.13,0003.57
2022-08-15 04:15:00,,0829.8,5.00,0.00,30.7,27.2,00.0,39.1,31.4,33.5,0000.0,0008.04,0004.19,0003.57
2022-08-15 04:16:00,,0829.9,4.99,0.00,30.5,27.0,00.0,39.0,31.3,33.7,0000.0,0007.99,0004.17,0003.57
2022-08-15 04:17:00,,0829.9,5.00,0.00,30.4,27.1,00.0,39.0,31.3,33.9,0000.0,0008.00,0004.17,0003.57
2022-08-15 04:18:00,,0830.0,5.01,0.00,30.3,27.2,00.0,39.0,31.3,34.0,0000.0,0008.00,0004.16,0003.57
2022-08-15 04:19:00,,0829.9,4.99,0.00,30.3,27.4,00.0,38.9,31.3,34.0,0000.0,0008.23,0004.17,0003.57
2022-08-15 04:20:00,,0829.9,5.01,0.00,30.2,27.6,00.0,38.9,31.4,34.2,0000.0,0008.54,0004.14,0003.56
2022-08-15 04:21:00,,0829.9,4.99,0.00,30.2,27.8,00.0,38.9,31.4,34.2,0000.0,0008.58,0004.14,0003.56
2022-08-15 04:22:00,,0829.9,5.00,0.00,30.2,27.9,00.0,38.9,31.5,34.2,0000.0,0008.51,0004.11,0003.55
2022-08-15 04:23:00,,0829.9,5.01,0.00,30.2,28.1,00.0,38.9,31.5,34.1,0000.0,0008.41,0004.09,0003.54
2022-08-15 04:24:00,,0830.0,5.00,0.00,30.2,28.2,00.0,38.9,31.5,34.0,0000.0,0008.18,0004.05,0003.53
2022-08-15 04:25:00,,0830.1,4.99,0.00,30.2,28.3,00.0,38.9,31.6,34.1,0000.0,0007.88,0004.01,0003.51
2022-08-15 04:26:00,,0830.1,5.00,0.00,30.2,28.4,00.0,38.9,31.6,34.1,0000.0,0007.60,0003.92,0003.49
2022-08-15 04:27:00,,0830.1,5.00,0.00,30.2,28.5,00.0,38.8,31.6,34.1,0000.0,0007.52,0003.88,0003.47
2022-08-15 04:28:00,,0830.1,5.01,0.00,30.2,28.6,00.0,38.8,31.7,34.0,0000.0,0007.51,0003.87,0003.45
2022-08-15 04:29:00,,0830.1,5.00,0.00,30.2,28.7,00.0,38.9,31.7,34.1,0000.0,0007.40,0003.83,0003.43
2022-08-15 04:30:00,,0830.1,5.00,0.00,30.2,28.7,00.0,38.9,31.8,34.8,0000.0,0006.87,0003.83,0003.42
2022-08-15 04:31:00,,0830.1,4.99,0.00,30.3,28.8,00.0,38.9,31.8,35.0,0000.0,0006.15,0003.83,0003.43
2022-08-15 04:32:00,,0830.1,5.00,0.00,30.4,28.3,00.0,38.8,31.7,35.3,0000.0,0006.39,0003.86,0003.44
2022-08-15 04:33:00,,0830.1,4.99,0.00,30.6,27.5,00.0,38.8,31.6,35.6,0000.0,0006.67,0003.90,0003.46
2022-08-15 04:34:00,,0830.1,5.01,0.00,30.9,27.1,00.0,38.8,31.7,34.6,0000.0,0007.05,0004.00,0003.49
2022-08-15 04:35:00,,0830.1,5.00,0.00,31.0,27.1,00.0,38.8,31.6,33.8,0000.0,0007.16,0004.04,0003.50
2022-08-15 04:36:00,,0830.1,4.99,0.00,31.0,27.2,00.0,38.8,31.5,33.1,0000.0,0007.25,0004.06,0003.51
2022-08-15 04:37:00,,0830.1,5.01,0.00,31.0,27.3,00.0,38.8,31.5,33.3,0000.0,0007.30,0004.06,0003.53
2022-08-15 04:38:00,,0830.0,5.01,0.00,31.0,27.5,00.0,38.9,31.5,33.3,0000.0,0007.38,0004.09,0003.56
2022-08-15 04:39:00,,0830.1,5.00,0.00,31.0,27.7,00.0,38.9,31.6,33.4,0000.0,0007.35,0004.11,0003.58
2022-08-15 04:40:00,,0830.1,4.99,0.00,31.0,27.8,00.0,39.0,31.6,33.5,0000.0,0007.39,0004.14,0003.61
2022-08-15 04:41:00,,0830.1,5.01,0.00,30.9,28.0,00.0,39.0,31.7,33.2,0000.0,0007.47,0004.15,0003.63
2022-08-15 04:42:00,,0830.1,4.99,0.00,30.9,28.1,00.0,39.1,31.7,33.4,0000.0,0007.71,0004.15,0003.63
2022-08-15 04:43:00,,0830.0,5.00,0.00,30.9,28.2,00.0,39.1,31.7,33.7,0000.0,0007.61,0004.12,0003.63
2022-08-15 04:44:00,,0830.0,5.00,0.00,30.9,28.3,00.0,39.1,31.8,34.1,0000.0,0007.58,0004.14,0003.64
2022-08-15 04:45:00,,0829.9,5.00,0.00,30.8,28.4,00.0,39.1,31.7,34.3,0000.0,0007.55,0004.11,0003.64
2022-08-15 04:46:00,,0829.8,5.01,0.00,30.8,28.5,00.0,39.2,31.8,34.7,0000.0,0007.48,0004.09,0003.66
2022-08-15 04:47:00,,0829.9,5.03,0.00,30.8,28.6,00.0,39.2,31.9,35.1,0000.0,0007.55,0004.11,0003.68
2022-08-15 04:48:00,,0829.8,5.00,0.00,30.9,28.7,00.0,39.2,32.0,34.5,0000.0,0007.69,0004.11,0003.68
2022-08-15 04:49:00,,0829.8,5.00,0.00,31.0,28.8,00.0,39.2,32.0,33.8,0000.0,0007.71,0004.13,0003.68
2022-08-15 04:50:00,,0829.9,5.00,0.00,31.0,28.8,00.0,39.2,32.0,33.3,0000.0,0007.87,0004.15,0003.68
2022-08-15 04:51:00,,0829.8,5.01,0.00,31.0,28.5,00.0,39.2,31.9,33.3,0000.0,0008.18,0004.15,0003.69
2022-08-15 04:52:00,,0829.9,4.99,0.00,31.0,27.8,00.0,39.2,31.7,33.2,0000.0,0008.33,0004.18,0003.71
2022-08-15 04:53:00,,0829.9,5.00,0.00,30.9,27.3,00.0,39.2,31.6,32.9,0000.0,0008.51,0004.19,0003.71
2022-08-15 04:54:00,,0829.8,5.00,0.00,30.7,27.2,00.0,39.1,31.5,33.5,0000.0,0008.49,0004.21,0003.71
2022-08-15 04:55:00,,0829.9,5.00,0.00,30.6,27.3,00.0,39.1,31.4,34.5,0000.0,0008.58,0004.18,0003.71
2022-08-15 04:56:00,,0829.8,5.00,0.00,30.6,27.4,00.0,39.1,31.5,35.5,0000.0,0008.48,0004.17,0003.70
2022-08-15 04:57:00,,0829.8,5.02,0.00,30.7,27.5,00.0,39.1,31.6,35.1,0000.0,0008.48,0004.16,0003.69
2022-08-15 04:58:00,,0829.8,4.99,0.00,30.9,27.7,00.0,39.1,31.8,34.4,0000.0,0008.39,0004.12,0003.67
2022-08-15 04:59:00,,0829.8,5.00,0.00,31.0,27.9,00.0,39.1,31.7,34.2,0000.0,0008.20,0004.11,0003.67
